NOAA 16 DEB, 41652

Orbit data source: Space-Track

NOAA 16 DEB, 41652 is space debris in SSO originally from a launch on Thu, 21 Sep 2000 UTC launched from the Air Force Western Test Range (AFWTR). Debris objects in space refer to the collection of defunct objects orbiting the Earth. Examples of debris include non-operational satellites, rocket bodies, and fragments generated from explosions, collisions, or faulty payload assembly.

Loading next visibility...
Identifier
41652, 2000-055NR
Orbit
SSO
Country
Flag of USUS
Related business
Manufacturer
Unknown
Mission
Spacecraft
Bus & Motor
Unknown
Mass
Unknown
Launch date (UTC)
2000-09-21 (26 years ago)
Launch vehicle
Unknown
Launch site
Air Force Western Test Range (AFWTR)
Object type
Payload
Rocket body
Debris
Shape & HBR
Unknown shape, 0.1 m
Radar Cross Section
Medium (>0.1 m² and <1 m²)

Expand to show TLE details & history
Last TLE update: 6 days ago

TLE from 6 days ago
0 NOAA 16 DEB
1 41652U 00055NR  26160.06098043  .00010146  00000-0  27771-2 0  9991
2 41652  98.8768 276.4138 0032062 100.9808 259.4992 14.47072204523850
Epoch: 2026-06-09T01:27Z
TLE epoch observation values (Epoch: 2026-06-09T01:27:48.709Z)
Latitude
-0.00003°
Longitude
-2.97804°
Altitude
742.401 km
Speed
7.481 km/s
True Right ascension
18h 25m 39s
True Declination
0° 00' 00"
Sunlit
Object was in full shadow at epoch
Visualization orbit readout
Latitude
Unknown
Longitude
Unknown
Altitude
Unknown
Speed
Unknown
Apparent Right ascension
Unknown
Apparent Declination
Unknown
Sunlit
N/A
Visualization observer readout
Local Sidereal Time
01:56:29
Azimuth
Unknown
Elevation
Unknown
Doppler factor
Unknown
Orbital elements
Apogee altitude
755.155 km
Perigee altitude
709.56 km
Semi-major axis
7,110.495 km
Eccentricity
0.00321
Inclination
98.8768°
RAAN
276.4138°
Arg. of periapsis
100.9808°
True anomaly
259.13822°
Mean anomaly
259.4992°
Eccentric anomaly
259.31868°
Mean motion
3.61987 °/min
Orbital period
99.45 mins
BSTAR
0.0027771
Loading maneuver chart data...
Computing Atmospheric mass density...
Loading historical data...
Loading historical data...
Loading historical data...
Loading historical data...
Loading historical data...
Loading historical data...
Loading historical data...

Documentation

Showing up to 5 results
|